Location: Courcelles
(49.2596°N, 1.7419°E)
Time: 06:30:55
(UTC+00:00)

Cosmos 1869 - Pass Details

Date: 17 November 2025
Orbit: 453 x 481 km, 82.5° (Epoch: 10 December)

Event Time Altitude Azimuth Distance (km) Brightness Sun altitude
Rises 17:10:58 0° 173° (S) 2,489 6.8 -10.1°
Reaches altitude 10° 17:13:06 10° 167° (SSE) 1,613 5.8 -10.5°
Maximum altitude 17:16:27 43° 95° (E) 658 3.3 -11.0°
Drops below altitude 10° 17:19:48 10° 22° (NNE) 1,613 5.3 -11.5°
Enters shadow 17:20:54 - 18° (NNE) 2,058 5.9 -11.7°
